SL-8 DEB *, 3045

Orbit data source: Space-Track

SL-8 DEB *, 3045 is space debris in LEO originally from a launch on Fri, 03 Sep 1965 UTC launched from the Tyuratam Missile And Space Complex (TTMTR). Debris objects in space refer to the collection of defunct objects orbiting the Earth. Examples of debris include non-operational satellites, rocket bodies, and fragments generated from explosions, collisions, or faulty payload assembly.

Loading next visibility...
Identifier
3045, 1965-070G
Orbit
LEO
Country
Flag of CISCIS
Related business
Manufacturer
Unknown
Mission
Spacecraft
Bus & Motor
Unknown
Mass
Unknown
Launch date (UTC)
1965-09-03 (61 years ago)
Launch vehicle
Unknown
Launch site
Tyuratam Missile And Space Complex (TTMTR)
Object type
Payload
Rocket body
Debris
Shape & HBR
Unknown shape, 0.1 m
Radar Cross Section
Medium (>0.1 m² and <1 m²)

Expand to show TLE details & history
Last TLE update: 15 hours ago

TLE from 15 hours ago
0 SL-8 DEB *
1 03045U 65070G   26207.23258318  .00000116  00000-0  12784-2 0  9991
2 03045  55.4290 134.5857 0290615 218.0845 296.2915 12.44623459693791
Epoch: 2026-07-26T05:34Z
TLE epoch observation values (Epoch: 2026-07-26T05:34:55.186Z)
Latitude
23.30939°
Longitude
-90.26142°
Altitude
1,392.208 km
Speed
7.21 km/s
True Right ascension
19h 49m 36s
True Declination
23° 11' 42"
Sunlit
Object was in full shadow at epoch
Visualization orbit readout
Latitude
Unknown
Longitude
Unknown
Altitude
Unknown
Speed
Unknown
Apparent Right ascension
Unknown
Apparent Declination
Unknown
Sunlit
N/A
Visualization observer readout
Local Sidereal Time
09:55:02
Azimuth
Unknown
Elevation
Unknown
Doppler factor
Unknown
Orbital elements
Apogee altitude
1,715.546 km
Perigee altitude
1,258.402 km
Semi-major axis
7,865.111 km
Eccentricity
0.02906
Inclination
55.429°
RAAN
134.5857°
Arg. of periapsis
218.0845°
True anomaly
293.25843°
Mean anomaly
296.2915°
Eccentric anomaly
294.77971°
Mean motion
3.11162 °/min
Orbital period
115.7 mins
BSTAR
0.0012784
Loading maneuver chart data...
Computing Atmospheric mass density...
Loading historical data...
Loading historical data...
Loading historical data...
Loading historical data...
Loading historical data...
Loading historical data...
Loading historical data...
Other satellites on launch #70 in the year 1965 (1965-09-03 UTC)

Documentation

Showing up to 5 results
|